Location: *
(51.0333°S, 178.4667°E)
Time: 07:04:23
(UTC+00:00)

Meteor 2-4 Rocket - Pass Details

Date: 15 November 2019
Orbit: 799 x 908 km, 81.2° (Epoch: 06 December)

Event Time Altitude Azimuth Distance (km) Brightness Sun altitude
Rises 09:52:02 0° 197° (SSW) 3,367 8.5 -15.8°
Reaches altitude 10° 09:54:29 10° 202° (SSW) 2,438 7.4 -16.0°
Maximum altitude 09:59:45 49° 274° (W) 1,077 4.4 -16.4°
Enters shadow 10:03:57 16° 343° (NNW) 2,056 5.3 -16.7°
